Regional Weather Roundup
Issued by NWS Upton, NY

Current Version | Previous Version | Text Only | Print | Product List | Glossary On
Versions: 1 2 3 4 5 6 7 8 9 10 11 12 13 14 15 16 17 18 19 20 21 22 23 24 25 26 27 28 29 30 31 32 33 34 35 36 37 38 39 40 41 42 43 44 45 46 47 48 49 50
000 ASUS41 KOKX 221918 RWROKX REGIONAL WEATHER ROUNDUP NATIONAL WEATHER SERVICE NEW YORK NY 300 PM EDT FRI MAY 22 2015 NOTE: "FAIR" INDICATES FEW OR NO CLOUDS BELOW 12,000 FEET WITH NO SIGNIFICANT WEATHER AND/OR OBSTRUCTIONS TO VISIBILITY. NYZ071-072-176-178-NJZ106-104-222000- NEW YORK CITY METRO AREA CITY SKY/WX TMP DP RH WIND PRES REMARKS CENTRAL PARK PTSUNNY 71 37 28 VRB6 29.94R LAGUARDIA APRT PTSUNNY 72 38 29 NW18G29 29.90S KENNEDY INTL PTSUNNY 76 37 24 W17G24 29.92R NEWARK/LIBERTY PTSUNNY 76 38 25 W28G37 29.91S BRNX BOT. GARD N/A 70 37 30 W16 29.93R TETERBORO CLOUDY 72 37 28 NW14G23 29.91R $$ NYZ177-179-078>081-222000- LONG ISLAND NEW YORK CITY SKY/WX TMP DP RH WIND PRES REMARKS FARMINGDALE MOSUNNY 73 37 27 NW16G29 29.91S ISLIP PTSUNNY 67 44 43 SW14 29.90R SHIRLEY CLOUDY 68 45 43 SW17G24 29.91R WESTHAMPTON CLOUDY 67 45 45 SW13G26 29.92R MONTAUK POINT N/A 71 44 37 SW9G24 29.89R $$ NYZ052-065-067-222000- HUDSON VALLEY CITY SKY/WX TMP DP RH WIND PRES REMARKS WHITE PLAINS PTSUNNY 72 38 29 W10G22 29.91R NEWBURGH PTSUNNY 68 41 37 NW14G25 29.93R MONTGOMERY PTSUNNY 69 39 33 NW10 29.92R POUGHKEEPSIE SUNNY 72 33 24 W21G28 29.90R ALBANY MOSUNNY 67 30 25 W20G25 29.93R $$ NJZ001-105-106-008-010-013-015-019>022-104-222000- NEW JERSEY CITY SKY/WX TMP DP RH WIND PRES REMARKS NEWARK/LIBERTY PTSUNNY 76 38 25 W28G37 29.91S TETERBORO CLOUDY 72 37 28 NW14G23 29.91R CALDWELL LGT RAIN 69 39 33 NW17G23 29.94R MORRISTOWN PTSUNNY 72 41 33 NW18G24 29.93S SOMERVILLE MOSUNNY 74 42 31 NW9G17 29.92F SUSSEX PTSUNNY 71 38 29 NW9G22 29.95S ANDOVER N/A 67 44 43 VRB5 29.95R TRENTON MOSUNNY 74 41 30 W16G28 29.96S MILLVILLE SUNNY 74 44 34 W17G26 30.02S ATLANTIC CITY MOSUNNY 74 40 29 W17G29 29.99F WRIGHTSTOWN MOSUNNY 73 43 34 W18G29 29.95S TOMS RIVER MOSUNNY 75 41 29 W18G30 29.97R BELMAR CLOUDY 72 43 35 W18G24 29.95S $$ PAZ047>061-062-071-222000- EASTERN PENNSYLVANIA CITY SKY/WX TMP DP RH WIND PRES REMARKS PHILADELPHIA PTSUNNY 74 40 29 W18 30.00S ALLENTOWN CLOUDY 70 42 36 W17G26 29.97S SCRANTON CLOUDY 65 37 35 NW12 29.97R $$ CTZ002-004>006-009-010-012-RIZ004-006-007-MAZ004-011-015-222000- SOUTHERN NEW ENGLAND IN CT CITY SKY/WX TMP DP RH WIND PRES REMARKS BRADLEY INTL MOSUNNY 75 31 19 NW23G33 29.85R HARTFORD MOSUNNY 70 35 27 W12G21 29.85S DANBURY MOSUNNY 69 37 30 NW13G28 29.91S WTRBRY/OXFORD MOSUNNY 68 37 32 W13G24 29.91R BRIDGEPORT MOSUNNY 75 37 25 W14G28 29.88R MERIDEN MOSUNNY 73 35 25 NW16G22 29.87R NEW HAVEN MOSUNNY 70 37 29 W12G23 29.88R CHESTER FAIR 70 39 32 NW10G20 29.88R GROTON MOSUNNY 63 45 51 SW16 29.86S WILLIMANTIC MOSUNNY 72 36 26 W10G20 29.85R IN RI CITY SKY/WX TMP DP RH WIND PRES REMARKS PROVIDENCE PTSUNNY 72 36 26 W13 29.83R BLOCK ISLAND SUNNY 64 46 52 SW20G26 29.88S WESTERLY MOSUNNY 66 43 43 SW13G26 29.86S IN MA CITY SKY/WX TMP DP RH WIND PRES REMARKS BOSTON MOSUNNY 73 28 18 W16G28 29.78R WORCESTER MOSUNNY 70 29 21 NW24G36 29.83R WESTFIELD MOSUNNY 72 30 21 NW22G30 29.86R PROVINCETOWN SUNNY 64 45 48 S13 29.81R NANTUCKET SUNNY 60 51 72 SW14 29.87R $$ ANZ330-335-338-340-345-350-353-355-222000- COASTAL MARINE OBSERVATIONS STATION/POSITION TIME SKY/WX TEMP WIND PRES VSBY WAVE AIR SEA DIR/SP/G HT/PER (UTC) (F) (DEG/KT/KT) (MB) (MI) (FT/S) NY HARB ENTRANCE 1850 63 57 280/ 10/ 12 1013.2 1/ 8 4S FIRE IS 1803 54 N/A 3/ 4 20S FIRE ISLAND 1850 59 56 220/ 14/ 16 1013.7 2/ 4 GREAT SOUTH BAY 1830 62 64 230/ 14/ 17 N/A 23SW MTP 1850 57 55 240/ 17/ 19 1012.5 3/ 3 HUDSON CANYON NOT AVBL KINGS POINT 1800 68 54 330/ 13/ 20 1012.2 CENTRAL LI SOUND 1800 59 52 240/ 14/ 17 N/A EASTERN LI SOUND 1800 57 250/ 16/ 19 N/A ROBBINS REEF 1800 70 310/ 16/ 21 1011.8 $$ >>>>>>>>>>>>>>>>>>>>>>>>>>>> KEY <<<<<<<<<<<<<<<<<<<<<<<<<<< > < > SKY/WX - SKY CONDITION/PRESENT WEATHER < > TMP - TEMPERATURE IN FAHRENHEIT < > DP - DEWPOINT IN FAHRENHEIT < > RH - RELATIVE HUMIDITY IN PERCENT < > WIND - DIRECTION AND SPEED IN MPH < > PRES - MEAN SEA LEVEL PRESSURE IN INCHES OF HG < > WCI - WIND CHILL INDEX < > VSB - VISIBILITY IN MILES < > HX - HEAT INDEX < > TC - TEMPERATURE IN CELSIUS < > VRB - VARIABLE WIND DIRECTION < > < >>>>>>>>>>>>>>>>>>>>>>>>>>>> KEY <<<<<<<<<<<<<<<<<<<<<<<<<<<

USA.gov is the U.S. government's official web portal to all federal, state and local government web resources and services.